Location: Peterborough
(44.3091°N, 78.3197°W)
Time: 09:06:36
(UTC-04:00)

A-11 Canister half - Pass Details

Date: 14 September 2024
Orbit: 1515 x 1684 km, 47.2° (Epoch: 02 October)

Event Time Altitude Azimuth Distance (km) Brightness Sun altitude
Rises 01:15:32 0° 291° (WNW) 4,665 11.7 -42.5°
Reaches altitude 10° 01:18:33 10° 290° (WNW) 3,678 11.1 -42.4°
Enters shadow 01:21:40 25° 288° (WNW) 2,709 10.3 -42.4°
